| time (UTC) | temp F | wind direction | speed MPH | gust MPH | rain 1hr in | rain 24hr in | rain mn in | humidity % | barometer mb |
| 20260510124213 | 52 | 44 | 4.0 | 8.0 | 0.17 | 0.03 | 0.03 | 25 | 1016.9 |
| 20260510123707 | 52 | 57 | 7.0 | 12.0 | 0.07 | 0.01 | 0.01 | 24 | 1017.0 |
| 20260510123204 | 52 | 47 | 7.0 | 13.0 | 0.00 | 0.00 | 0.00 | 24 | 1017.1 |
| 20260510122700 | 52 | 59 | 11.0 | 11.0 | 0.00 | 0.00 | 0.00 | 24 | 1017.1 |
| 20260510122156 | 52 | 51 | 6.0 | 10.0 | 0.00 | 0.00 | 0.00 | 25 | 1017.1 |
| 20260510121648 | 52 | 54 | 5.0 | 10.0 | 0.00 | 0.00 | 0.00 | 28 | 1017.1 |
| 20260510121145 | 52 | 42 | 10.0 | 13.0 | 0.00 | 0.00 | 0.00 | 24 | 1017.1 |
| 20260510120642 | 53 | 42 | 7.0 | 16.0 | 0.00 | 0.00 | 0.00 | 23 | 1016.9 |
| 20260510120138 | 53 | 49 | 8.0 | 11.0 | 0.00 | 0.00 | 0.00 | 24 | 1016.9 |
| 20260510115634 | 53 | 93 | 6.0 | 11.0 | 0.00 | 0.00 | 0.00 | 24 | 1016.9 |
| 20260510115133 | 54 | 46 | 3.0 | 9.0 | 0.00 | 0.00 | 0.00 | 22 | 1016.8 |
| 20260510114628 | 54 | 54 | 8.0 | 11.0 | 0.00 | 0.00 | 0.00 | 22 | 1016.9 |
| 20260510114124 | 55 | 57 | 6.0 | 13.0 | 0.00 | 0.00 | 0.00 | 22 | 1016.6 |
| 20260510113620 | 56 | 35 | 9.0 | 12.0 | 0.00 | 0.00 | 0.00 | 20 | 1016.8 |
| 20260510113117 | 55 | 58 | 5.0 | 6.0 | 0.00 | 0.00 | 0.00 | 21 | 1016.5 |
| 20260510112613 | 55 | 45 | 6.0 | 7.0 | 0.00 | 0.00 | 0.00 | 21 | 1016.6 |
| 20260510112104 | 54 | 30 | 3.0 | 9.0 | 0.00 | 0.00 | 0.00 | 23 | 1016.4 |
| 20260510111601 | 53 | 345 | 2.0 | 6.0 | 0.00 | 0.00 | 0.00 | 23 | 1016.5 |
| 20260510111056 | 54 | 39 | 4.0 | 4.0 | 0.00 | 0.00 | 0.00 | 24 | 1016.5 |
| 20260510110552 | 54 | 64 | 4.0 | 6.0 | 0.00 | 0.00 | 0.00 | 22 | 1016.3 |
| 20260510110049 | 55 | 59 | 5.0 | 14.0 | 0.00 | 0.00 | 0.00 | 22 | 1016.2 |
| 20260510105539 | 55 | 55 | 6.0 | 11.0 | 0.00 | 0.00 | 0.00 | 22 | 1015.9 |
| 20260510105034 | 55 | 95 | 5.0 | 16.0 | 0.00 | 0.00 | 0.00 | 22 | 1015.9 |
| 20260510104531 | 54 | 45 | 10.0 | 12.0 | 0.00 | 0.00 | 0.00 | 23 | 1015.8 |
| 20260510104026 | 54 | 69 | 10.0 | 15.0 | 0.00 | 0.00 | 0.00 | 22 | 1015.6 |
| 20260510103524 | 55 | 13 | 12.0 | 16.0 | 0.00 | 0.00 | 0.00 | 22 | 1015.5 |
| 20260510103020 | 55 | 43 | 10.0 | 22.0 | 0.00 | 0.00 | 0.00 | 22 | 1015.8 |
| 20260510102516 | 57 | 28 | 12.0 | 24.0 | 0.00 | 0.00 | 0.00 | 20 | 1015.7 |
| 20260510102012 | 58 | 29 | 12.0 | 21.0 | 0.00 | 0.00 | 0.00 | 19 | 1015.7 |
| 20260510101510 | 57 | 40 | 12.0 | 16.0 | 0.00 | 0.00 | 0.00 | 19 | 1015.6 |
| 20260510101008 | 58 | 53 | 6.0 | 15.0 | 0.00 | 0.00 | 0.00 | 19 | 1015.7 |
| 20260510100504 | 58 | 50 | 10.0 | 15.0 | 0.00 | 0.00 | 0.00 | 19 | 1015.6 |
| 20260510100000 | 58 | 43 | 15.0 | 17.0 | 0.00 | 0.00 | 0.00 | 19 | 1015.6 |
| 20260510095451 | 59 | 44 | 8.0 | 14.0 | 0.00 | 0.00 | 0.00 | 19 | 1015.1 |
| 20260510094950 | 59 | 32 | 6.0 | 16.0 | 0.00 | 0.00 | 0.00 | 19 | 1015.2 |
| 20260510094445 | 59 | 64 | 11.0 | 12.0 | 0.00 | 0.00 | 0.00 | 19 | 1015.4 |
| 20260510093941 | 59 | 43 | 8.0 | 14.0 | 0.00 | 0.00 | 0.00 | 19 | 1015.1 |
| 20260510093437 | 59 | 50 | 8.0 | 11.0 | 0.00 | 0.00 | 0.00 | 20 | 1015.4 |
| 20260510092933 | 59 | 51 | 9.0 | 18.0 | 0.00 | 0.00 | 0.00 | 19 | 1015.2 |
| 20260510092431 | 59 | 51 | 10.0 | 13.0 | 0.00 | 0.00 | 0.00 | 20 | 1015.1 |
| 20260510091924 | 59 | 56 | 7.0 | 17.0 | 0.00 | 0.00 | 0.00 | 20 | 1015.0 |
| 20260510091422 | 59 | 52 | 12.0 | 17.0 | 0.00 | 0.00 | 0.00 | 20 | 1014.9 |
| 20260510090918 | 59 | 6 | 8.0 | 17.0 | 0.00 | 0.00 | 0.00 | 20 | 1014.8 |
| 20260510090415 | 59 | 64 | 8.0 | 19.0 | 0.00 | 0.00 | 0.00 | 20 | 1015.1 |
| 20260510085911 | 60 | 52 | 9.0 | 16.0 | 0.00 | 0.00 | 0.00 | 20 | 1015.0 |
| 20260510085407 | 60 | 48 | 9.0 | 21.0 | 0.00 | 0.00 | 0.00 | 19 | 1015.0 |
| 20260510084901 | 60 | 53 | 7.0 | 19.0 | 0.00 | 0.00 | 0.00 | 19 | 1014.9 |
| 20260510084400 | 61 | 27 | 6.0 | 17.0 | 0.00 | 0.00 | 0.00 | 18 | 1014.9 |
| 20260510083856 | 61 | 70 | 8.0 | 14.0 | 0.00 | 0.00 | 0.00 | 18 | 1015.1 |
| 20260510083352 | 61 | 35 | 10.0 | 15.0 | 0.00 | 0.00 | 0.00 | 19 | 1015.0 |
| 20260510082848 | 61 | 47 | 11.0 | 13.0 | 0.00 | 0.00 | 0.00 | 19 | 1014.9 |
| 20260510082345 | 61 | 60 | 15.0 | 18.0 | 0.00 | 0.00 | 0.00 | 19 | 1014.9 |
| 20260510081843 | 61 | 30 | 9.0 | 15.0 | 0.00 | 0.00 | 0.00 | 19 | 1015.0 |
| 20260510081340 | 62 | 38 | 9.0 | 14.0 | 0.00 | 0.00 | 0.00 | 19 | 1014.9 |
| 20260510080836 | 61 | 54 | 9.0 | 14.0 | 0.00 | 0.00 | 0.00 | 19 | 1014.8 |
| 20260510080330 | 62 | 60 | 10.0 | 15.0 | 0.00 | 0.00 | 0.00 | 19 | 1014.9 |
| 20260510075828 | 61 | 58 | 6.0 | 15.0 | 0.00 | 0.00 | 0.00 | 20 | 1014.8 |
| 20260510075325 | 61 | 52 | 8.0 | 17.0 | 0.00 | 0.00 | 0.00 | 20 | 1014.9 |
| 20260510074822 | 61 | 46 | 9.0 | 13.0 | 0.00 | 0.00 | 0.00 | 20 | 1014.9 |
| 20260510074319 | 60 | 58 | 7.0 | 11.0 | 0.00 | 0.00 | 0.00 | 21 | 1014.9 |
| 20260510073815 | 61 | 53 | 10.0 | 12.0 | 0.00 | 0.00 | 0.00 | 21 | 1014.9 |
| 20260510073312 | 60 | 59 | 8.0 | 14.0 | 0.00 | 0.00 | 0.00 | 21 | 1015.0 |
| 20260510072808 | 60 | 60 | 6.0 | 10.0 | 0.00 | 0.00 | 0.00 | 22 | 1015.0 |
| 20260510072306 | 60 | 68 | 6.0 | 9.0 | 0.00 | 0.00 | 0.00 | 22 | 1015.0 |
| 20260510071801 | 60 | 40 | 6.0 | 9.0 | 0.00 | 0.00 | 0.00 | 23 | 1014.9 |
| 20260510071257 | 59 | 45 | 6.0 | 8.0 | 0.00 | 0.00 | 0.00 | 23 | 1015.1 |
| 20260510070756 | 60 | 48 | 6.0 | 11.0 | 0.00 | 0.00 | 0.00 | 23 | 1014.8 |
| 20260510070252 | 59 | 47 | 5.0 | 6.0 | 0.00 | 0.00 | 0.00 | 24 | 1014.9 |
| 20260510065746 | 59 | 62 | 4.0 | 9.0 | 0.00 | 0.00 | 0.00 | 24 | 1015.0 |
| 20260510065243 | 59 | 47 | 7.0 | 8.0 | 0.00 | 0.00 | 0.00 | 25 | 1014.8 |
| 20260510064739 | 58 | 76 | 4.0 | 6.0 | 0.00 | 0.00 | 0.00 | 25 | 1014.7 |
| 20260510064237 | 57 | 85 | 3.0 | 6.0 | 0.00 | 0.00 | 0.00 | 28 | 1015.1 |
| 20260510063733 | 55 | 62 | 3.0 | 6.0 | 0.00 | 0.00 | 0.00 | 32 | 1014.5 |
| 20260510063230 | 55 | 70 | 2.0 | 4.0 | 0.00 | 0.00 | 0.00 | 33 | 1014.5 |
| 20260510062727 | 56 | 66 | 2.0 | 4.0 | 0.00 | 0.00 | 0.00 | 32 | 1014.7 |
| 20260510062223 | 56 | 71 | 4.0 | 5.0 | 0.00 | 0.00 | 0.00 | 33 | 1014.7 |
| 20260510061718 | 56 | 60 | 4.0 | 4.0 | 0.00 | 0.00 | 0.00 | 30 | 1014.7 |
| 20260510061216 | 57 | 60 | 2.0 | 4.0 | 0.00 | 0.00 | 0.00 | 31 | 1014.8 |
| 20260510060712 | 60 | 40 | 3.0 | 4.0 | 0.00 | 0.00 | 0.00 | 29 | 1014.8 |
| 20260510060208 | 61 | 30 | 5.0 | 6.0 | 0.00 | 0.00 | 0.00 | 25 | 1014.7 |
| 20260510055705 | 60 | 20 | 4.0 | 5.0 | 0.00 | 0.00 | 0.00 | 26 | 1014.5 |
| 20260510055203 | 60 | 21 | 4.0 | 6.0 | 0.00 | 0.00 | 0.00 | 27 | 1014.5 |
| 20260510054658 | 59 | 38 | 7.0 | 8.0 | 0.00 | 0.00 | 0.00 | 27 | 1014.5 |
| 20260510054154 | 60 | 58 | 5.0 | 7.0 | 0.00 | 0.00 | 0.00 | 27 | 1014.5 |
| 20260510053653 | 61 | 54 | 5.0 | 7.0 | 0.00 | 0.00 | 0.00 | 26 | 1014.3 |
| 20260510053150 | 61 | 46 | 4.0 | 6.0 | 0.00 | 0.00 | 0.00 | 26 | 1014.7 |
| 20260510052646 | 61 | 44 | 4.0 | 6.0 | 0.00 | 0.00 | 0.00 | 27 | 1014.2 |
| 20260510052142 | 62 | 44 | 6.0 | 10.0 | 0.00 | 0.00 | 0.00 | 26 | 1014.4 |
| 20260510051638 | 62 | 62 | 3.0 | 8.0 | 0.00 | 0.00 | 0.00 | 26 | 1014.2 |
| 20260510051135 | 62 | 53 | 6.0 | 7.0 | 0.00 | 0.00 | 0.00 | 26 | 1014.2 |
| 20260510050632 | 62 | 49 | 8.0 | 9.0 | 0.00 | 0.00 | 0.00 | 26 | 1014.1 |
| 20260510050129 | 62 | 78 | 5.0 | 8.0 | 0.00 | 0.00 | 0.00 | 25 | 1014.1 |
| 20260510045626 | 62 | 74 | 4.0 | 8.0 | 0.00 | 0.00 | 0.00 | 26 | 1014.2 |
| 20260510045122 | 63 | 42 | 4.0 | 10.0 | 0.00 | 0.00 | 0.00 | 25 | 1014.2 |
| 20260510044619 | 64 | 68 | 5.0 | 12.0 | 0.00 | 0.00 | 0.00 | 24 | 1014.2 |
| 20260510044116 | 65 | 56 | 9.0 | 12.0 | 0.00 | 0.00 | 0.00 | 23 | 1014.1 |
| 20260510043612 | 65 | 79 | 6.0 | 14.0 | 0.00 | 0.00 | 0.00 | 23 | 1013.9 |
| 20260510043108 | 66 | 63 | 9.0 | 17.0 | 0.00 | 0.00 | 0.00 | 23 | 1014.2 |
| 20260510042607 | 66 | 64 | 10.0 | 14.0 | 0.00 | 0.00 | 0.00 | 22 | 1013.9 |
| 20260510042102 | 66 | 36 | 6.0 | 13.0 | 0.00 | 0.00 | 0.00 | 22 | 1013.9 |
| 20260510041559 | 67 | 20 | 12.0 | 15.0 | 0.00 | 0.00 | 0.00 | 22 | 1014.1 |
| 20260510041057 | 67 | 54 | 7.0 | 11.0 | 0.00 | 0.00 | 0.00 | 22 | 1013.8 |
| 20260510040553 | 68 | 50 | 10.0 | 12.0 | 0.00 | 0.00 | 0.00 | 22 | 1013.9 |
| 20260510040049 | 68 | 30 | 5.0 | 14.0 | 0.00 | 0.00 | 0.00 | 22 | 1013.6 |
| 20260510035546 | 68 | 63 | 6.0 | 13.0 | 0.00 | 0.00 | 0.00 | 22 | 1013.9 |
| 20260510035045 | 68 | 54 | 5.0 | 11.0 | 0.00 | 0.00 | 0.00 | 22 | 1013.6 |
| 20260510034544 | 67 | 31 | 4.0 | 11.0 | 0.00 | 0.00 | 0.00 | 23 | 1013.6 |
| 20260510034041 | 66 | 61 | 4.0 | 7.0 | 0.00 | 0.00 | 0.00 | 24 | 1013.4 |
| 20260510033536 | 67 | 60 | 3.0 | 6.0 | 0.00 | 0.00 | 0.00 | 24 | 1013.6 |
| 20260510033035 | 67 | 77 | 3.0 | 5.0 | 0.00 | 0.00 | 0.00 | 24 | 1013.2 |
| 20260510032531 | 68 | 42 | 5.0 | 8.0 | 0.00 | 0.00 | 0.00 | 23 | 1013.5 |
| 20260510032026 | 68 | 54 | 3.0 | 5.0 | 0.00 | 0.00 | 0.00 | 23 | 1013.4 |
| 20260510031521 | 68 | 59 | 5.0 | 5.0 | 0.00 | 0.00 | 0.00 | 22 | 1013.2 |
| 20260510031017 | 69 | 56 | 4.0 | 5.0 | 0.00 | 0.00 | 0.00 | 22 | 1013.0 |
| 20260510030513 | 70 | 40 | 4.0 | 6.0 | 0.00 | 0.00 | 0.00 | 21 | 1012.9 |
| 20260510030011 | 70 | 15 | 1.0 | 4.0 | 0.00 | 0.00 | 0.00 | 21 | 1012.9 |
| 20260510025507 | 70 | 50 | 5.0 | 5.0 | 0.00 | 0.00 | 0.00 | 21 | 1012.8 |
| 20260510025005 | 71 | 41 | 3.0 | 7.0 | 0.00 | 0.00 | 0.00 | 21 | 1012.8 |
| 20260510024502 | 71 | 20 | 2.0 | 6.0 | 0.00 | 0.00 | 0.00 | 21 | 1012.8 |
| 20260510023958 | 72 | 339 | 2.0 | 9.0 | 0.00 | 0.00 | 0.00 | 21 | 1012.4 |
| 20260510023449 | 72 | 316 | 3.0 | 7.0 | 0.00 | 0.00 | 0.00 | 20 | 1012.3 |
| 20260510022946 | 72 | 24 | 3.0 | 11.0 | 0.00 | 0.00 | 0.00 | 21 | 1012.4 |
| 20260510022445 | 72 | 335 | 2.0 | 7.0 | 0.00 | 0.00 | 0.00 | 22 | 1012.4 |
| 20260510021944 | 72 | 25 | 2.0 | 4.0 | 0.00 | 0.00 | 0.00 | 22 | 1012.3 |
| 20260510021442 | 73 | 48 | 2.0 | 4.0 | 0.00 | 0.00 | 0.00 | 22 | 1012.2 |
| 20260510020938 | 73 | 57 | 0.0 | 2.0 | 0.00 | 0.00 | 0.00 | 22 | 1012.2 |
| 20260510020432 | 73 | 292 | 4.0 | 4.0 | 0.00 | 0.00 | 0.00 | 21 | 1012.1 |
| 20260510015928 | 73 | 274 | 2.0 | 2.0 | 0.00 | 0.00 | 0.00 | 22 | 1012.2 |
| 20260510015425 | 74 | 263 | 2.0 | 3.0 | 0.00 | 0.00 | 0.00 | 22 | 1012.1 |
| 20260510014919 | 75 | 304 | 0.0 | 3.0 | 0.00 | 0.00 | 0.00 | 22 | 1011.9 |
| 20260510014417 | 75 | 320 | 1.0 | 4.0 | 0.00 | 0.00 | 0.00 | 20 | 1012.1 |
| 20260510013914 | 75 | 303 | 2.0 | 3.0 | 0.00 | 0.00 | 0.00 | 20 | 1011.8 |
| 20260510013408 | 75 | 245 | 5.0 | 5.0 | 0.00 | 0.00 | 0.00 | 20 | 1011.9 |
| 20260510012904 | 75 | 3 | 1.0 | 4.0 | 0.00 | 0.00 | 0.00 | 20 | 1012.2 |
| 20260510012359 | 75 | 296 | 4.0 | 5.0 | 0.00 | 0.00 | 0.00 | 20 | 1012.1 |
| 20260510011854 | 75 | 307 | 2.0 | 3.0 | 0.00 | 0.00 | 0.00 | 21 | 1011.9 |
| 20260510011349 | 75 | 290 | 0.0 | 4.0 | 0.00 | 0.00 | 0.00 | 21 | 1011.8 |
| 20260510010846 | 76 | 286 | 3.0 | 4.0 | 0.00 | 0.00 | 0.00 | 19 | 1011.8 |
| 20260510010343 | 76 | 305 | 0.0 | 2.0 | 0.00 | 0.00 | 0.00 | 21 | 1011.8 |
| 20260510005840 | 76 | 304 | 2.0 | 3.0 | 0.00 | 0.00 | 0.00 | 21 | 1011.8 |
| 20260510005336 | 77 | 295 | 2.0 | 4.0 | 0.00 | 0.00 | 0.00 | 19 | 1011.9 |
| 20260510004834 | 77 | 297 | 6.0 | 6.0 | 0.00 | 0.00 | 0.00 | 18 | 1012.1 |
| 20260510004331 | 77 | 313 | 3.0 | 5.0 | 0.00 | 0.00 | 0.00 | 19 | 1011.7 |
| 20260510003829 | 78 | 300 | 4.0 | 4.0 | 0.00 | 0.00 | 0.00 | 19 | 1012.2 |
| 20260510003326 | 79 | 283 | 2.0 | 5.0 | 0.00 | 0.00 | 0.00 | 19 | 1011.9 |
| 20260510002824 | 80 | 292 | 3.0 | 6.0 | 0.00 | 0.00 | 0.00 | 17 | 1011.9 |
| 20260510002322 | 81 | 305 | 3.0 | 4.0 | 0.00 | 0.00 | 0.00 | 18 | 1011.9 |
| 20260510001818 | 82 | 344 | 3.0 | 4.0 | 0.00 | 0.00 | 0.00 | 18 | 1011.8 |
| 20260510001316 | 81 | 290 | 4.0 | 5.0 | 0.00 | 0.00 | 0.00 | 17 | 1011.7 |
| 20260510000812 | 82 | 308 | 4.0 | 6.0 | 0.00 | 0.00 | 0.00 | 17 | 1011.7 |
| 20260510000311 | 82 | 288 | 3.0 | 6.0 | 0.00 | 0.00 | 0.00 | 18 | 1011.6 |
| 20260509235807 | 82 | 286 | 3.0 | 5.0 | 0.00 | 0.00 | 0.00 | 17 | 1011.5 |
| 20260509235306 | 82 | 308 | 3.0 | 4.0 | 0.00 | 0.00 | 0.00 | 18 | 1011.8 |
| 20260509234759 | 82 | 285 | 4.0 | 4.0 | 0.00 | 0.00 | 0.00 | 18 | 1011.7 |
| 20260509234256 | 82 | 294 | 3.0 | 6.0 | 0.00 | 0.00 | 0.00 | 17 | 1011.6 |
| 20260509233754 | 83 | 288 | 2.0 | 5.0 | 0.00 | 0.00 | 0.00 | 17 | 1011.8 |
| 20260509233251 | 83 | 282 | 3.0 | 4.0 | 0.00 | 0.00 | 0.00 | 18 | 1011.6 |
| 20260509232747 | 83 | 310 | 3.0 | 6.0 | 0.00 | 0.00 | 0.00 | 17 | 1011.7 |
| 20260509232245 | 83 | 299 | 4.0 | 6.0 | 0.00 | 0.00 | 0.00 | 18 | 1011.5 |
| 20260509231741 | 84 | 256 | 4.0 | 10.0 | 0.00 | 0.00 | 0.00 | 19 | 1011.4 |
| 20260509231238 | 83 | 252 | 2.0 | 4.0 | 0.00 | 0.00 | 0.00 | 20 | 1011.6 |
| 20260509230735 | 84 | 225 | 2.0 | 7.0 | 0.00 | 0.00 | 0.00 | 19 | 1011.7 |
| 20260509230232 | 83 | 249 | 4.0 | 6.0 | 0.00 | 0.00 | 0.00 | 19 | 1011.6 |
| 20260509225727 | 83 | 284 | 4.0 | 6.0 | 0.00 | 0.00 | 0.00 | 19 | 1011.9 |
| 20260509225224 | 82 | 324 | 5.0 | 6.0 | 0.00 | 0.00 | 0.00 | 18 | 1011.5 |
| 20260509224719 | 84 | 280 | 4.0 | 5.0 | 0.00 | 0.00 | 0.00 | 18 | 1011.8 |
| 20260509224216 | 83 | 262 | 2.0 | 5.0 | 0.00 | 0.00 | 0.00 | 19 | 1011.5 |
| 20260509223713 | 83 | 293 | 4.0 | 6.0 | 0.00 | 0.00 | 0.00 | 20 | 1011.8 |
| 20260509223211 | 83 | 287 | 4.0 | 9.0 | 0.00 | 0.00 | 0.00 | 19 | 1011.6 |
| 20260509222707 | 84 | 302 | 3.0 | 6.0 | 0.00 | 0.00 | 0.00 | 19 | 1011.7 |
| 20260509222203 | 83 | 237 | 3.0 | 6.0 | 0.00 | 0.00 | 0.00 | 19 | 1011.7 |
| 20260509221659 | 83 | 298 | 6.0 | 6.0 | 0.00 | 0.00 | 0.00 | 20 | 1011.6 |
| 20260509221155 | 83 | 294 | 4.0 | 6.0 | 0.00 | 0.00 | 0.00 | 19 | 1011.6 |
| 20260509220651 | 82 | 300 | 2.0 | 8.0 | 0.00 | 0.00 | 0.00 | 19 | 1011.6 |
| 20260509220142 | 79 | 288 | 5.0 | 5.0 | 0.00 | 0.00 | 0.00 | 20 | 1012.1 |
| 20260509215638 | 81 | 254 | 4.0 | 6.0 | 0.00 | 0.00 | 0.00 | 20 | 1011.9 |
| 20260509215135 | 80 | 303 | 2.0 | 6.0 | 0.00 | 0.00 | 0.00 | 19 | 1012.3 |
| 20260509214632 | 81 | 297 | 4.0 | 5.0 | 0.00 | 0.00 | 0.00 | 18 | 1012.1 |
| 20260509214128 | 83 | 287 | 6.0 | 7.0 | 0.00 | 0.00 | 0.00 | 18 | 1012.2 |
| 20260509213626 | 85 | 295 | 0.0 | 3.0 | 0.00 | 0.00 | 0.00 | 17 | 1012.3 |
| 20260509213121 | 82 | 291 | 4.0 | 9.0 | 0.00 | 0.00 | 0.00 | 19 | 1012.3 |
| 20260509212619 | 84 | 275 | 2.0 | 5.0 | 0.00 | 0.00 | 0.00 | 16 | 1012.3 |
| 20260509212116 | 84 | 308 | 3.0 | 5.0 | 0.00 | 0.00 | 0.00 | 19 | 1012.3 |
| 20260509211612 | 84 | 293 | 4.0 | 7.0 | 0.00 | 0.00 | 0.00 | 18 | 1012.1 |
| 20260509211109 | 83 | 294 | 7.0 | 9.0 | 0.00 | 0.00 | 0.00 | 18 | 1012.4 |
| 20260509210605 | 84 | 277 | 5.0 | 8.0 | 0.00 | 0.00 | 0.00 | 17 | 1012.4 |
| 20260509205601 | 84 | 284 | 5.0 | 9.0 | 0.00 | 0.00 | 0.00 | 19 | 1012.8 |
| 20260509205056 | 83 | 283 | 5.0 | 7.0 | 0.00 | 0.00 | 0.00 | 16 | 1012.5 |
| 20260509204553 | 83 | 285 | 4.0 | 6.0 | 0.00 | 0.00 | 0.00 | 20 | 1012.7 |
| 20260509204050 | 85 | 237 | 4.0 | 4.0 | 0.00 | 0.00 | 0.00 | 22 | 1012.4 |
| 20260509203546 | 83 | 259 | 3.0 | 8.0 | 0.00 | 0.00 | 0.00 | 19 | 1012.9 |
| 20260509203044 | 83 | 192 | 2.0 | 4.0 | 0.00 | 0.00 | 0.00 | 16 | 1012.5 |
| 20260509202538 | 81 | 283 | 5.0 | 11.0 | 0.00 | 0.00 | 0.00 | 16 | 1012.5 |
| 20260509202034 | 81 | 283 | 2.0 | 5.0 | 0.00 | 0.00 | 0.00 | 18 | 1012.4 |
| 20260509201529 | 83 | 266 | 0.0 | 6.0 | 0.00 | 0.00 | 0.00 | 19 | 1012.4 |
| 20260509201027 | 84 | 287 | 3.0 | 9.0 | 0.00 | 0.00 | 0.00 | 19 | 1012.9 |
| 20260509200521 | 82 | 284 | 2.0 | 5.0 | 0.00 | 0.00 | 0.00 | 19 | 1012.5 |
| 20260509200018 | 82 | 306 | 5.0 | 6.0 | 0.00 | 0.00 | 0.00 | 19 | 1012.8 |
| 20260509195514 | 82 | 294 | 4.0 | 5.0 | 0.00 | 0.00 | 0.00 | 20 | 1012.5 |
| 20260509195013 | 80 | 256 | 5.0 | 10.0 | 0.00 | 0.00 | 0.00 | 20 | 1012.7 |
| 20260509194509 | 79 | 287 | 3.0 | 5.0 | 0.00 | 0.00 | 0.00 | 19 | 1012.9 |
| 20260509194006 | 82 | 304 | 6.0 | 6.0 | 0.00 | 0.00 | 0.00 | 20 | 1013.0 |
| 20260509193501 | 83 | 288 | 4.0 | 4.0 | 0.00 | 0.00 | 0.00 | 20 | 1012.7 |
| 20260509192957 | 84 | 268 | 3.0 | 9.0 | 0.00 | 0.00 | 0.00 | 18 | 1012.8 |
| 20260509192454 | 83 | 264 | 3.0 | 4.0 | 0.00 | 0.00 | 0.00 | 21 | 1012.9 |
| 20260509191949 | 83 | 326 | 2.0 | 4.0 | 0.00 | 0.00 | 0.00 | 19 | 1012.7 |
| 20260509191444 | 82 | 352 | 3.0 | 6.0 | 0.00 | 0.00 | 0.00 | 17 | 1012.8 |
| 20260509190940 | 83 | 300 | 4.0 | 6.0 | 0.00 | 0.00 | 0.00 | 18 | 1012.8 |
| 20260509190438 | 84 | 266 | 3.0 | 6.0 | 0.00 | 0.00 | 0.00 | 20 | 1012.9 |
| 20260509185936 | 83 | 307 | 3.0 | 6.0 | 0.00 | 0.00 | 0.00 | 19 | 1012.8 |
| 20260509185433 | 81 | 288 | 2.0 | 5.0 | 0.00 | 0.00 | 0.00 | 21 | 1013.0 |
| 20260509184929 | 79 | 246 | 2.0 | 4.0 | 0.00 | 0.00 | 0.00 | 21 | 1012.7 |
| 20260509184427 | 80 | 296 | 4.0 | 7.0 | 0.00 | 0.00 | 0.00 | 19 | 1013.1 |
| 20260509183923 | 82 | 278 | 4.0 | 7.0 | 0.00 | 0.00 | 0.00 | 21 | 1012.9 |
| 20260509183422 | 81 | 220 | 6.0 | 12.0 | 0.00 | 0.00 | 0.00 | 20 | 1012.7 |
| 20260509182919 | 83 | 254 | 5.0 | 10.0 | 0.00 | 0.00 | 0.00 | 22 | 1012.8 |
| 20260509182416 | 83 | 279 | 2.0 | 6.0 | 0.00 | 0.00 | 0.00 | 22 | 1012.9 |
| 20260509181914 | 82 | 229 | 7.0 | 10.0 | 0.00 | 0.00 | 0.00 | 21 | 1013.2 |
| 20260509181411 | 82 | 232 | 1.0 | 8.0 | 0.00 | 0.00 | 0.00 | 19 | 1013.2 |
| 20260509180908 | 81 | 221 | 3.0 | 8.0 | 0.00 | 0.00 | 0.00 | 19 | 1013.1 |
| 20260509180403 | 80 | 156 | 2.0 | 9.0 | 0.00 | 0.00 | 0.00 | 19 | 1013.1 |
| 20260509175901 | 82 | 223 | 2.0 | 4.0 | 0.00 | 0.00 | 0.00 | 20 | 1013.5 |
| 20260509175357 | 82 | 260 | 1.0 | 5.0 | 0.00 | 0.00 | 0.00 | 22 | 1013.0 |
| 20260509174853 | 82 | 273 | 3.0 | 6.0 | 0.00 | 0.00 | 0.00 | 23 | 1013.2 |
| 20260509174344 | 81 | 212 | 1.0 | 4.0 | 0.00 | 0.00 | 0.00 | 23 | 1013.4 |
| 20260509173840 | 80 | 224 | 3.0 | 8.0 | 0.00 | 0.00 | 0.00 | 21 | 1013.5 |
| 20260509173335 | 80 | 173 | 1.0 | 4.0 | 0.00 | 0.00 | 0.00 | 23 | 1013.5 |
| 20260509172832 | 81 | 299 | 0.0 | 4.0 | 0.00 | 0.00 | 0.00 | 21 | 1013.7 |
| 20260509172328 | 80 | 260 | 1.0 | 5.0 | 0.00 | 0.00 | 0.00 | 20 | 1013.6 |
| 20260509171825 | 80 | 296 | 3.0 | 4.0 | 0.00 | 0.00 | 0.00 | 24 | 1013.6 |
| 20260509171320 | 81 | 319 | 2.0 | 3.0 | 0.00 | 0.00 | 0.00 | 24 | 1013.6 |
| 20260509170817 | 79 | 228 | 3.0 | 4.0 | 0.00 | 0.00 | 0.00 | 22 | 1013.5 |
| 20260509170313 | 79 | 298 | 3.0 | 4.0 | 0.00 | 0.00 | 0.00 | 24 | 1013.6 |
| 20260509165813 | 79 | 301 | 2.0 | 3.0 | 0.00 | 0.00 | 0.00 | 26 | 1013.6 |
| 20260509165307 | 79 | 280 | 2.0 | 3.0 | 0.00 | 0.00 | 0.00 | 26 | 1013.7 |
| 20260509164803 | 80 | 254 | 2.0 | 3.0 | 0.00 | 0.00 | 0.00 | 28 | 1013.5 |
| 20260509164259 | 77 | 224 | 2.0 | 4.0 | 0.00 | 0.00 | 0.00 | 27 | 1013.8 |
| 20260509163756 | 77 | 305 | 2.0 | 3.0 | 0.00 | 0.00 | 0.00 | 26 | 1013.7 |
| 20260509163252 | 76 | 274 | 1.0 | 3.0 | 0.00 | 0.00 | 0.00 | 31 | 1013.6 |
| 20260509162751 | 76 | 255 | 1.0 | 3.0 | 0.00 | 0.00 | 0.00 | 29 | 1013.6 |
| 20260509162245 | 75 | 319 | 1.0 | 2.0 | 0.00 | 0.00 | 0.00 | 29 | 1013.5 |
| 20260509161741 | 73 | 333 | 2.0 | 4.0 | 0.00 | 0.00 | 0.00 | 28 | 1013.6 |
| 20260509161232 | 72 | 285 | 2.0 | 4.0 | 0.00 | 0.00 | 0.00 | 28 | 1013.6 |
| 20260509160727 | 71 | 281 | 2.0 | 3.0 | 0.00 | 0.00 | 0.00 | 29 | 1013.6 |
| 20260509160224 | 71 | 254 | 0.0 | 3.0 | 0.00 | 0.00 | 0.00 | 30 | 1013.6 |
| 20260509155719 | 71 | 258 | 2.0 | 4.0 | 0.00 | 0.00 | 0.00 | 32 | 1013.4 |
| 20260509155216 | 68 | 311 | 3.0 | 3.0 | 0.00 | 0.00 | 0.00 | 35 | 1013.5 |
| 20260509154712 | 67 | 238 | 2.0 | 3.0 | 0.00 | 0.00 | 0.00 | 32 | 1013.5 |
| 20260509154209 | 67 | 311 | 0.0 | 4.0 | 0.00 | 0.00 | 0.00 | 36 | 1013.6 |
| 20260509153706 | 66 | 256 | 1.0 | 3.0 | 0.00 | 0.00 | 0.00 | 35 | 1013.5 |
| 20260509153202 | 65 | 308 | 2.0 | 4.0 | 0.00 | 0.00 | 0.00 | 36 | 1013.6 |
| 20260509152658 | 65 | 352 | 2.0 | 2.0 | 0.00 | 0.00 | 0.00 | 38 | 1013.6 |
| 20260509152155 | 64 | 324 | 1.0 | 3.0 | 0.00 | 0.00 | 0.00 | 37 | 1013.5 |
| 20260509151652 | 63 | 248 | 2.0 | 4.0 | 0.00 | 0.00 | 0.00 | 36 | 1013.6 |
| 20260509151149 | 62 | 183 | 1.0 | 2.0 | 0.00 | 0.00 | 0.00 | 34 | 1013.5 |
| 20260509150647 | 63 | 251 | 1.0 | 2.0 | 0.00 | 0.00 | 0.00 | 35 | 1013.6 |
| 20260509150145 | 63 | 329 | 0.0 | 1.0 | 0.00 | 0.00 | 0.00 | 38 | 1013.6 |
| 20260509145641 | 60 | 135 | 0.0 | 3.0 | 0.00 | 0.00 | 0.00 | 38 | 1013.9 |
| 20260509145136 | 60 | 130 | 2.0 | 2.0 | 0.00 | 0.00 | 0.00 | 37 | 1013.8 |
| 20260509144633 | 58 | 122 | 0.0 | 2.0 | 0.00 | 0.00 | 0.00 | 40 | 1013.7 |
| 20260509144130 | 58 | 130 | 2.0 | 2.0 | 0.00 | 0.00 | 0.00 | 39 | 1013.9 |
| 20260509143627 | 55 | 60 | 0.0 | 1.0 | 0.00 | 0.00 | 0.00 | 42 | 1013.7 |
| 20260509143125 | 54 | 30 | 2.0 | 3.0 | 0.00 | 0.00 | 0.00 | 44 | 1013.8 |
| 20260509142620 | 53 | 298 | 1.0 | 3.0 | 0.00 | 0.00 | 0.00 | 46 | 1013.9 |
| 20260509142117 | 50 | 336 | 0.0 | 2.0 | 0.00 | 0.00 | 0.00 | 49 | 1013.8 |
| 20260509141613 | 50 | 135 | 0.0 | 1.0 | 0.00 | 0.00 | 0.00 | 49 | 1013.8 |
| 20260509141109 | 49 | 333 | 0.0 | 3.0 | 0.00 | 0.00 | 0.00 | 51 | 1013.6 |
| 20260509140606 | 48 | 276 | 2.0 | 2.0 | 0.00 | 0.00 | 0.00 | 54 | 1013.5 |
| 20260509140104 | 47 | 42 | 1.0 | 2.0 | 0.00 | 0.00 | 0.00 | 55 | 1013.6 |
| 20260509135600 | 46 | 116 | 0.0 | 2.0 | 0.00 | 0.00 | 0.00 | 56 | 1013.2 |
| 20260509135059 | 45 | 336 | 0.0 | 2.0 | 0.00 | 0.00 | 0.00 | 54 | 1013.2 |
| 20260509134556 | 44 | 143 | 2.0 | 2.0 | 0.00 | 0.00 | 0.00 | 56 | 1013.4 |
| 20260509134053 | 42 | 139 | 2.0 | 3.0 | 0.00 | 0.00 | 0.00 | 60 | 1013.2 |
| 20260509133550 | 40 | 169 | 2.0 | 4.0 | 0.00 | 0.00 | 0.00 | 64 | 1013.0 |
| 20260509133047 | 38 | 146 | 2.0 | 2.0 | 0.00 | 0.00 | 0.00 | 65 | 1013.1 |
| 20260509132545 | 37 | 182 | 1.0 | 4.0 | 0.00 | 0.00 | 0.00 | 68 | 1013.1 |
| 20260509132043 | 37 | 151 | 1.0 | 2.0 | 0.00 | 0.00 | 0.00 | 68 | 1012.9 |
| 20260509131539 | 37 | 208 | 1.0 | 2.0 | 0.00 | 0.00 | 0.00 | 69 | 1012.9 |
| 20260509131036 | 36 | 70 | 1.0 | 1.0 | 0.00 | 0.00 | 0.00 | 73 | 1012.8 |
| 20260509130531 | 37 | 141 | 2.0 | 2.0 | 0.00 | 0.00 | 0.00 | 71 | 1012.8 |
| 20260509130023 | 37 | 209 | 1.0 | 2.0 | 0.00 | 0.00 | 0.00 | 74 | 1012.7 |
| 20260509125519 | 37 | 69 | 0.0 | 2.0 | 0.00 | 0.00 | 0.00 | 75 | 1012.7 |
| 20260509125015 | 37 | 249 | 2.0 | 2.0 | 0.00 | 0.00 | 0.00 | 75 | 1012.5 |
| 20260509124512 | 38 | 187 | 1.0 | 2.0 | 0.00 | 0.00 | 0.00 | 73 | 1012.4 |